CZ-6A DEB, 54625

Orbit data source: Space-Track

CZ-6A DEB, 54625 is space debris in SSO originally from a launch on Fri, 11 Nov 2022 UTC launched from the Taiyaun Space Center, China (TSC). Debris objects in space refer to the collection of defunct objects orbiting the Earth. Examples of debris include non-operational satellites, rocket bodies, and fragments generated from explosions, collisions, or faulty payload assembly.

Loading next visibility...
Identifier
54625, 2022-151PB
Orbit
SSO
Country
Flag of CNCN / PRC
Related business
Manufacturer
SAST
Mission
Spacecraft
Bus & Motor
Unknown
Mass
Unknown
Launch date (UTC)
2022-11-11 (4 years ago)
Launch vehicle
Unknown
Launch site
Taiyaun Space Center, China (TSC)
Object type
Payload
Rocket body
Debris
Shape & HBR
Unknown shape, 0.1 m
Radar Cross Section
Medium (>0.1 m² and <1 m²)

Expand to show TLE details & history
Last TLE update: 2 days ago

TLE from 2 days ago
0 CZ-6A DEB
1 54625U 22151PB  26171.32500117  .00000266  00000-0  22340-3 0  9997
2 54625  98.9419 139.5167 0134697  88.6936 272.9650 13.91950197181754
Epoch: 2026-06-20T07:48Z
TLE epoch observation values (Epoch: 2026-06-20T07:48:00.101Z)
Latitude
-0.00009°
Longitude
113.97504°
Altitude
920.909 km
Speed
7.393 km/s
True Right ascension
09h 18m 04s
True Declination
0° 00' 00"
Sunlit
Object was in daylight at epoch
Visualization orbit readout
Latitude
Unknown
Longitude
Unknown
Altitude
Unknown
Speed
Unknown
Apparent Right ascension
Unknown
Apparent Declination
Unknown
Sunlit
N/A
Visualization observer readout
Local Sidereal Time
21:58:17
Azimuth
Unknown
Elevation
Unknown
Doppler factor
Unknown
Orbital elements
Apogee altitude
1,017.301 km
Perigee altitude
820.721 km
Semi-major axis
7,297.148 km
Eccentricity
0.01347
Inclination
98.9419°
RAAN
139.5167°
Arg. of periapsis
88.6936°
True anomaly
271.4224°
Mean anomaly
272.965°
Eccentric anomaly
272.19381°
Mean motion
3.48188 °/min
Orbital period
103.39 mins
BSTAR
0.0002234
Loading maneuver chart data...
Computing Atmospheric mass density...
Loading historical data...
Loading historical data...
Loading historical data...
Loading historical data...
Loading historical data...
Loading historical data...
Loading historical data...

Documentation

Showing up to 5 results
|